[[{"header":{"parameterUnit":"m.s-1","parameterCategory":1,"la1":30.2991,"la2":30.254,"lo1":-89.0895,"lo2":-89.0444,"dy":0.0017,"dx":0.0017,"nx":28,"ny":28,"refTime":"2024-07-28T03:00:00:Z","depth":0,"parameterNumber":2,"parameterNumberName":"U-component_of_WINDS"},"data":[0,0,0,0,0,0,0,0,0,0,0,0,0,0,0,0,0,0,0,0,0,0,0,0,0,0,0,0,0,0,0,0,0,0,0,0,0,0,0,0,0,0,0,0,0,0,0,0,0,0,0,0,0,0,0,0,0,0,1.1151,1.1152,0,1.1219,1.122,1.1221,1.1224,1.1223,1.1222,1.1221,1.129,1.1293,1.1295,0,0,0,0,0,0,0,0,0,0,0,0,0,1.102,1.1023,1.1151,1.1152,1.1153,1.1219,1.122,1.1221,1.1224,1.1223,1.1222,1.1221,1.1289,1.1292,1.1295,0,0,0,0,0,0,0,0,0,0,0,0,0,1.1082,1.1023,1.1151,1.1162,1.1164,1.1219,1.122,1.1221,1.1224,1.1223,1.1221,1.122,1.1288,1.1292,1.1296,1.1344,0,0,1.1308,1.1309,0,0,0,0,0,0,0,0,1.1078,1.1086,1.1159,1.1161,1.1163,1.1212,1.1199,1.1262,1.1224,1.1201,1.1221,1.122,1.1265,1.1271,1.1286,1.1347,1.135,1.1308,1.131,1.1312,1.1313,0,0,0,0,0,0,0,1.1074,1.1083,1.1178,1.116,1.1163,1.1163,1.117,1.1211,1.1239,1.1203,1.1203,1.1211,1.1266,1.1282,1.1288,1.1351,1.1308,1.1311,1.1314,1.1315,1.1454,1.1455,0,0,0,0,0,0,1.1068,1.108,1.1176,1.118,1.1117,1.1166,1.1174,1.1197,1.1238,1.1244,1.1212,1.1211,1.1276,1.1283,1.129,1.1348,1.1312,1.1316,1.1318,1.1453,1.1454,1.1456,0,0,0,0,0,0,1.1065,1.1076,1.1173,1.113,1.1142,1.117,1.1195,1.1199,1.1216,1.1246,1.125,1.1224,1.1276,1.1285,1.133,1.1351,1.1317,1.1321,1.1451,1.1453,1.1455,1.1466,0,0,0,0,0,0,1.1061,1.1075,1.1094,1.113,1.1145,1.1213,1.1197,1.1202,1.1223,1.1222,1.1258,1.1263,1.1275,1.1325,1.1334,1.1355,1.1324,1.1449,1.1452,1.1454,1.1463,1.1468,1.1471,0,0,0,0,0,1.1056,1.1095,1.1095,1.1107,1.1169,1.1214,1.1222,1.1236,1.1225,1.1244,1.1262,1.1262,1.1347,1.1329,1.134,1.1363,1.1448,1.1451,1.1454,1.1462,1.1467,1.1471,0,0,0,0,0,0,1.106,1.11,1.1101,1.1152,1.118,1.1214,1.1239,1.1241,1.1272,1.127,1.1285,1.1293,1.1338,1.1355,1.1335,1.1411,1.1396,1.1401,1.1398,1.1403,1.1407,1.1402,1.1327,0,0,0,0,0,1.1067,1.1101,1.1133,1.1175,1.1189,1.1212,1.1232,1.124,1.1269,1.128,1.1302,1.133,1.1363,1.1384,1.1416,1.1466,1.1473,1.1487,1.1491,1.1494,1.1498,1.1524,1.153,1.1466,1.1466,1.1466,0,0,1.1082,1.1107,1.1128,1.1177,1.1199,1.1232,1.1221,1.1258,1.1282,1.1286,1.133,1.1347,1.1379,1.1426,1.1448,1.1442,1.1517,1.1498,1.15,1.1502,1.1528,1.1534,1.1539,1.1468,1.1467,1.1467,0,0,1.1125,1.1148,1.1185,1.1208,1.1241,1.1256,1.1265,1.1299,1.131,1.1355,1.1358,1.1387,1.1444,1.1466,1.1484,1.1535,1.1535,1.1544,1.1565,1.159,1.1595,1.1599,1.1616,1.1622,1.1549,1.1549,1.1549,0,1.1138,1.119,1.1204,1.124,1.1261,1.1265,1.1302,1.1323,1.1365,1.1379,1.1371,1.1441,1.1463,1.1515,1.1527,1.1543,1.1552,1.154,1.1593,1.1598,1.1602,1.1618,1.1625,1.155,1.155,1.1549,1.1549,0,1.1204,1.1239,1.1265,1.1305,1.1329,1.1365,1.1384,1.1407,1.1412,1.1427,1.1472,1.1498,1.1535,1.1548,1.1554,1.16,1.1595,1.159,1.1575,1.1609,1.1624,1.1631,1.1551,1.1551,1.155,1.155,0,0,1.1252,1.1299,1.1308,1.1326,1.1363,1.139,1.1426,1.1462,1.148,1.1509,1.1538,1.1586,1.1581,1.1602,1.161,1.1633,1.1669,1.1625,1.1626,1.1631,1.172,1.1723,1.173,1.1669,1.1671,1.1672,1.1717,0,1.1298,1.1362,1.1376,1.1431,1.1463,1.1467,1.1498,1.1523,1.1538,1.1567,1.1583,1.1615,1.1607,1.162,1.1642,1.166,1.1687,1.1657,1.1696,1.1697,1.1687,1.1738,1.1741,1.1783,1.1723,1.1724,1.1725,0,1.1361,1.1391,1.1449,1.1481,1.1495,1.1522,1.1555,1.1583,1.1612,1.1621,1.1644,1.1649,1.1686,1.1669,1.1719,1.1698,1.1715,1.1726,1.1728,1.1731,1.1712,1.1742,1.1797,1.1802,1.1735,1.1734,1.1733,0,1.1388,1.1443,1.1485,1.15,1.1539,1.1558,1.1574,1.1602,1.1622,1.1651,1.1664,1.1697,1.1714,1.1739,1.1753,1.174,1.1801,1.1786,1.1808,1.1808,1.182,1.1819,1.1877,1.1833,1.1832,1.1832,1.1832,0,1.1438,1.1473,1.1497,1.1523,1.1562,1.1577,1.1615,1.1631,1.1655,1.1683,1.1689,1.1715,1.1732,1.176,1.1772,1.181,1.1818,1.1826,1.1828,1.1825,1.1823,1.1835,1.1832,1.1834,1.1834,1.1833,1.1833,0,1.1475,1.1493,1.1538,1.1571,1.1579,1.1607,1.1634,1.1658,1.1673,1.1708,1.1717,1.174,1.1773,1.1789,1.1831,1.1838,1.1881,1.1882,1.1872,1.1872,1.1893,1.189,1.196,1.1969,1.1919,1.192,1.192,0,1.1505,1.1532,1.1567,1.1586,1.1603,1.1635,1.1655,1.167,1.1691,1.1725,1.1745,1.1779,1.1806,1.1859,1.1879,1.191,1.1911,1.1933,1.1916,1.1911,1.191,1.1908,1.191,1.1936,1.1937,1.1937,1.1937,0,1.1556,1.1563,1.1593,1.1625,1.165,1.1676,1.1702,1.1717,1.1736,1.176,1.1794,1.1815,1.1857,1.189,1.1923,1.1939,1.1941,1.1943,1.1949,1.1946,1.1938,1.1941,1.1879,1.1941,1.1941,1.194,1.194,1.194,1.1589,1.1613,1.1641,1.1674,1.1695,1.1719,1.1743,1.176,1.1789,1.1824,1.1832,1.1867,1.1894,1.1938,1.1955,1.1983,1.1978,1.1987,1.199,1.1992,1.1992,1.1934,1.1989,1.1989,1.1989,1.1988,1.1988,0,1.1639,1.1657,1.1687,1.1723,1.1749,1.1749,1.1777,1.1798,1.183,1.1855,1.1881,1.192,1.1951,1.1973,1.2005,1.2023,1.2024,1.2031,1.2029,1.2032,1.1995,1.1986,1.2029,1.2029,1.2029,1.2029,1.2029,1.2029,1.1668,1.1708,1.1718,1.1768,1.1786,1.1821,1.1837,1.1859,1.1879,1.1921,1.1948,1.1962,1.1985,1.2018,1.2047,1.2053,1.2063,1.2069,1.2075,1.2039,1.2035,1.2031,1.2022,1.2072,1.2072,1.2109,1.211,1.211]},{"header":{"parameterUnit":"m.s-1","parameterCategory":1,"la1":30.2991,"la2":30.254,"lo1":-89.0895,"lo2":-89.0444,"dy":0.0017,"dx":0.0017,"nx":28,"ny":28,"refTime":"2024-07-28T03:00:00:Z","depth":0,"parameterNumber":3,"parameterNumberName":"V-component_of_WINDS"},"data":[0,0,0,0,0,0,0,0,0,0,0,0,0,0,0,0,0,0,0,0,0,0,0,0,0,0,0,0,0,0,0,0,0,0,0,0,0,0,0,0,0,0,0,0,0,0,0,0,0,0,0,0,0,0,0,0,0,0,4.0489,4.0489,0,4.053,4.053,4.0531,4.0486,4.0484,4.0482,4.0481,4.052,4.0523,4.0526,0,0,0,0,0,0,0,0,0,0,0,0,0,4.0368,4.0371,4.0489,4.0489,4.049,4.053,4.053,4.0531,4.0486,4.0484,4.0482,4.048,4.0519,4.0523,4.0526,0,0,0,0,0,0,0,0,0,0,0,0,0,4.0416,4.0372,4.0489,4.0472,4.0471,4.0529,4.053,4.0531,4.0486,4.0484,4.0481,4.0479,4.0518,4.0522,4.0526,4.0602,0,0,4.0538,4.054,0,0,0,0,0,0,0,0,4.0413,4.0421,4.0474,4.0474,4.0473,4.05,4.0502,4.0555,4.0487,4.0481,4.0481,4.0478,4.0515,4.052,4.0533,4.0604,4.0605,4.0539,4.0541,4.0543,4.0544,0,0,0,0,0,0,0,4.041,4.0419,4.0505,4.0475,4.0474,4.0462,4.0466,4.0512,4.0512,4.0481,4.0478,4.0483,4.0514,4.0529,4.0533,4.0606,4.0539,4.0542,4.0545,4.0546,4.0738,4.0741,0,0,0,0,0,0,4.0409,4.0416,4.0504,4.0506,4.0436,4.0466,4.047,4.0494,4.0511,4.0511,4.0485,4.0481,4.0524,4.0529,4.0535,4.0622,4.0543,4.0546,4.0549,4.0735,4.0739,4.0741,0,0,0,0,0,0,4.0407,4.0417,4.0502,4.046,4.047,4.0471,4.0497,4.0496,4.051,4.0515,4.0514,4.0501,4.0522,4.0529,4.0585,4.0623,4.0548,4.0552,4.0732,4.0736,4.074,4.08,0,0,0,0,0,0,4.0404,4.0417,4.0447,4.0461,4.0473,4.0553,4.05,4.0499,4.0518,4.0512,4.0529,4.0529,4.052,4.0579,4.0589,4.0627,4.0555,4.0729,4.0734,4.0739,4.0794,4.0805,4.0815,0,0,0,0,0,4.0399,4.0462,4.0448,4.0459,4.051,4.0555,4.0562,4.0551,4.0521,4.055,4.0552,4.0528,4.0618,4.0585,4.0596,4.0636,4.0726,4.0732,4.0738,4.079,4.0803,4.0815,0,0,0,0,0,0,4.0452,4.0464,4.0449,4.0518,4.0536,4.0548,4.0584,4.0566,4.0592,4.0586,4.0571,4.0575,4.0634,4.0641,4.0605,4.0709,4.0667,4.0675,4.0702,4.0715,4.0725,4.0722,4.0558,0,0,0,0,0,4.0472,4.0508,4.0516,4.0577,4.0587,4.0584,4.0603,4.0593,4.0611,4.0618,4.0625,4.0642,4.0673,4.0695,4.0724,4.0795,4.0797,4.0828,4.0838,4.0846,4.0853,4.0889,4.0902,4.0762,4.0762,4.0761,0,0,4.0513,4.0524,4.0548,4.0588,4.06,4.0637,4.0591,4.0632,4.0659,4.0624,4.0677,4.0683,4.0701,4.0764,4.0792,4.0771,4.0893,4.0854,4.0861,4.0863,4.0897,4.091,4.0922,4.0766,4.0765,4.0764,0,0,4.0606,4.0619,4.0669,4.0683,4.0702,4.07,4.0712,4.0726,4.0728,4.0781,4.0755,4.0786,4.0842,4.0855,4.0869,4.0965,4.0943,4.0975,4.1028,4.1062,4.1073,4.1083,4.1115,4.1127,4.0982,4.0982,4.0982,0,4.0654,4.071,4.0698,4.0741,4.0758,4.0728,4.0778,4.0791,4.0819,4.0831,4.0808,4.0875,4.0885,4.095,4.0973,4.0986,4.0998,4.0972,4.1073,4.1083,4.1091,4.1122,4.1134,4.0986,4.0985,4.0985,4.0985,0,4.0767,4.0806,4.0844,4.0872,4.0893,4.094,4.0933,4.0956,4.0944,4.0943,4.0996,4.1007,4.1037,4.1052,4.1041,4.1114,4.1101,4.1076,4.1033,4.1109,4.1137,4.1149,4.0991,4.099,4.0988,4.0988,0,0,4.0895,4.0914,4.0928,4.0939,4.0958,4.0987,4.1031,4.106,4.1079,4.11,4.1135,4.1181,4.1157,4.1173,4.1163,4.1194,4.1266,4.1164,4.1164,4.1181,4.1346,4.1364,4.1378,4.1252,4.1254,4.1256,4.1344,0,4.0987,4.1064,4.1053,4.1127,4.1161,4.1132,4.117,4.1184,4.1185,4.1213,4.1213,4.1245,4.1212,4.1221,4.125,4.1251,4.1299,4.1245,4.1283,4.1285,4.1278,4.1393,4.1412,4.1494,4.1355,4.1357,4.1358,0,4.1105,4.1129,4.1206,4.1216,4.123,4.1265,4.129,4.1318,4.1333,4.133,4.1347,4.1331,4.1373,4.133,4.1387,4.135,4.1365,4.1368,4.1371,4.1373,4.1325,4.1396,4.152,4.1532,4.1376,4.1374,4.1373,0,4.1189,4.124,4.1292,4.1302,4.1317,4.1341,4.1348,4.1361,4.1379,4.14,4.1411,4.1437,4.1451,4.1471,4.1462,4.1432,4.1519,4.1476,4.1517,4.1518,4.1536,4.1535,4.1663,4.1549,4.1548,4.1548,4.1548,0,4.1292,4.134,4.1329,4.1361,4.1412,4.1399,4.145,4.1453,4.1464,4.1495,4.1472,4.1501,4.1487,4.1515,4.1507,4.1554,4.1561,4.1559,4.1557,4.1561,4.1561,4.1569,4.1563,4.1551,4.1551,4.155,4.1549,0,4.1394,4.1389,4.1443,4.1452,4.1455,4.1493,4.1499,4.1528,4.1526,4.1565,4.1574,4.157,4.1601,4.1594,4.1628,4.1623,4.1681,4.1672,4.1676,4.1674,4.1714,4.171,4.1851,4.1868,4.1744,4.1745,4.1746,0,4.146,4.1495,4.1508,4.1527,4.1535,4.1566,4.1584,4.1571,4.159,4.1609,4.1635,4.1664,4.1687,4.1738,4.1737,4.1763,4.1753,4.1801,4.1757,4.1759,4.1752,4.1749,4.1752,4.1809,4.1811,4.1812,4.1813,0,4.1576,4.1571,4.1598,4.1623,4.1645,4.1664,4.1681,4.1697,4.1686,4.1708,4.174,4.1757,4.1791,4.182,4.1843,4.1849,4.1828,4.1827,4.1837,4.1841,4.1841,4.184,4.1699,4.1823,4.1822,4.1822,4.1821,4.1821,4.1661,4.169,4.1703,4.1732,4.1743,4.1759,4.1786,4.1787,4.1813,4.184,4.1831,4.1866,4.1878,4.1907,4.1916,4.1942,4.1924,4.194,4.1944,4.1947,4.1951,4.1838,4.1947,4.1946,4.1946,4.1946,4.1946,0,4.1774,4.1781,4.1808,4.1832,4.1855,4.1834,4.1851,4.1871,4.1903,4.1916,4.1938,4.1973,4.2,4.2002,4.2027,4.2047,4.2039,4.2054,4.2052,4.2053,4.1967,4.1955,4.2061,4.2061,4.2061,4.2061,4.2061,4.2061,4.1836,4.1884,4.188,4.1933,4.1938,4.1973,4.1984,4.1998,4.2008,4.2048,4.207,4.2071,4.2079,4.2104,4.2127,4.2127,4.2136,4.2155,4.2151,4.2071,4.2059,4.2048,4.2037,4.2158,4.2158,4.2235,4.2235,4.2236]}]]